Voltar ao catálogo

SITRO-AIS-16

AtivoComunicaçõesSSO
NORAD 61737·PAYLOAD·🇷🇺 Russia
Este nome de satélite ainda não foi confirmado por fontes oficiais.

Lançado Nov 4, 2024 de Vostochny Cosmodrome

Loading…

Próximas Passagens (próximas 24 horas)

TLE

AtualizadoSource: Space-Track

Época: Sep 14, 2026, 22:41 UTC

1 61737U 24199C   26257.94581030  .00002235  00000-0  19396-3 0  9994
2 61737  97.3189  91.6863 0008019 117.3575 242.8465 14.97960573145252

Acompanhe SITRO-AIS-16 em tempo real com AllMySat

Download on the App Store